Regional Weather Roundup
Issued by NWS

Home | Current Version | Previous Version | Graphics & Text | Print | Product List | Glossary On
Versions: 1 2 3 4 5 6 7 8 9 10 11 12 13 14 15 16 17 18 19 20 21 22 23 24 25 26 27 28 29 30 31 32 33 34 35 36 37 38 39 40 41 42 43 44 45 46 47 48 49 50
582
ASUS43 KMPX 032001
RWRMN
WEATHER ROUNDUP FOR MINNESOTA
NATIONAL WEATHER SERVICE TWIN CITIES/CHANHASSEN MN
200 PM CST SAT DEC 03 2016


NOTE: "FAIR" INDICATES FEW OR NO CLOUDS BELOW 12,000 FEET WITH NO
SIGNIFICANT WEATHER AND/OR OBSTRUCTIONS TO VISIBILITY. N/A MEANS
CURRENT SKY AND/OR WEATHER CONDITIONS ARE NOT AVAILABLE.

MNZ060>063-068>070-032100-
   Twin Cities Metro

CITY           SKY/WX    TMP DP  RH WIND       PRES   REMARKS
TWIN CITIES    MOSUNNY   32  20  61 SE8       30.23F WCI  25
ST PAUL        MOSUNNY   32  21  64 S8        30.25F WCI  25
CRYSTAL        MOSUNNY   32  19  58 SE7       30.22S WCI  26
BLAINE         PTSUNNY   34  21  60 SE6       30.22F WCI  29
LAKEVILLE      SUNNY     30  21  69 E8        30.23F WCI  23
EDEN PRAIRIE   SUNNY     33  20  58 E6        30.22F WCI  28
SOUTH ST PAUL  MOSUNNY   32  20  62 SE6       30.24F WCI  26
LAKE ELMO      PTSUNNY   32  23  69 S3        30.24F
$$
MNZ001>005-007-008-013>017-022>024-027-028-032100-
   Northwest Minnesota

CITY           SKY/WX    TMP DP  RH WIND       PRES   REMARKS
BEMIDJI        CLOUDY    25  19  79 SE14      30.13F WCI  13
HALLOCK        CLOUDY    28  25  86 S20       30.07F WCI  15
ROSEAU         CLOUDY    28  21  74 SE10      30.11F WCI  19
WARROAD        CLOUDY    27  21  80 SE8       30.12F WCI  18
THIEF RVR FALL CLOUDY    27  20  75 SE15      30.11F WCI  15
CROOKSTON      CLOUDY    30  23  74 S21       30.10F WCI  17
FOSSTON        MOSUNNY   28  19  69 S10       30.12S WCI  19
DETROIT LAKES  SUNNY     30  23  74 SE15G21   30.10F WCI  19
MOORHEAD       MOSUNNY   30  25  80 SE15      30.08F WCI  19
PARK RAPIDS    CLOUDY    27  17  66 SE14      30.13F WCI  16
$$
MNZ006-009>011-018-025>026-032100-
   North Central Minnesota

CITY           SKY/WX    TMP DP  RH WIND       PRES   REMARKS
BAUDETTE       CLOUDY    26  19  74 S12       30.14F WCI  16
FLAG ISLAND    CLOUDY    28  23  80 S21       30.11F WCI  15
INTL FALLS     CLOUDY    26  19  74 VRB5      30.17F WCI  20
WASKISH        CLOUDY    27  21  80 S6        30.15F WCI  20
BIG FORK       CLOUDY    28  21  74 S8        30.16F WCI  20
LONGVILLE      CLOUDY    27  19  74 SE13      30.17F WCI  16
GRAND RAPIDS   CLOUDY    27  20  75 S10       30.19F WCI  17
CRANE LAKE     CLOUDY    27  19  74 S6        30.21S WCI  20
ORR            CLOUDY    27  18  69 S8        30.15F WCI  18
COOK           CLOUDY    28  21  74 S6        30.18F WCI  22
$$
MNZ012-019>021-037-032100-
   Northeast Minnesota

CITY           SKY/WX    TMP DP  RH WIND       PRES   REMARKS
DULUTH         FLURRIES  29  23  78 S7        30.20F WCI  22
ELY            CLOUDY    25  23  93 S3        30.19S
HIBBING        CLOUDY    27  19  72 S5        30.19S WCI  22
EVELETH        CLOUDY    29  21  73 S7        30.20S WCI  22
DULUTH HARBOR  CLOUDY    32  27  80 S5        30.25F WCI  27
TWO HARBORS    CLOUDY    34  25  69 SW5       30.20F WCI  30
SILVER BAY     CLOUDY    30  27  86 CALM      30.20S
GRAND MARAIS     N/A     34  26  72 SW7       30.24R WCI  28
G MARAIS ARPRT CLOUDY    27  19  74 CALM      30.18R
$$
MNZ029>031-032-039>041-046>048-054>057-064-032100-
   West Central Minnesota

CITY           SKY/WX    TMP DP  RH WIND       PRES   REMARKS
FERGUS FALLS   MOSUNNY   30  23  74 SE15      30.14F WCI  19
WHEATON        CLOUDY   N/A N/A N/A SE17      30.11F
MORRIS         CLOUDY    32  27  80 SE17      30.11F WCI  21
ALEXANDRIA     SUNNY     30  22  72 SE14      30.13F WCI  19
ELBOW LAKE     FAIR      31  25  77 E15       30.12S WCI  21
WADENA         SUNNY     27  19  74 SE8       30.12F WCI  18
GLENWOOD       SUNNY     32  25  74 SE14      30.14F WCI  22
APPLETON       PTSUNNY   34  27  75 SE13      30.13F WCI  25
BENSON         CLOUDY    32  25  74 S13G18    30.14F WCI  22
ORTONVILLE     MOSUNNY   32  27  80 SE10G17   30.10F WCI  24
MADISON        PTSUNNY   36  30  80 SE14      30.12F
WILLMAR        PTSUNNY   32  28  86 SE13      30.18S WCI  22
$$
MNZ033>034-036-042>043-049>051-058-059-032100-
   Central Minnesota

CITY           SKY/WX    TMP DP  RH WIND       PRES   REMARKS
ST CLOUD       SUNNY     30  21  69 S10       30.19F WCI  21
PAYNESVILLE    MOSUNNY   31  22  71 SE10      30.18S WCI  22
AITKIN         CLOUDY    30  19  64 S8        30.17F WCI  23
PINE RIVER     PTSUNNY   27  19  74 SE7       30.19F WCI  19
BRAINERD       CLOUDY    26  18  71 S8        30.17F WCI  18
STAPLES        MOSUNNY   27  18  69 SE7       30.15F WCI  19
LONG PRAIRIE   FAIR      28  21  74 E10       30.15F WCI  19
LITTLE FALLS   MOSUNNY   30  19  64 E6        30.17F WCI  24
LITCHFIELD     MOSUNNY   32  25  74 SE6       30.19S WCI  26
BUFFALO        SUNNY     32  20  63 E8        30.21F WCI  24
MAPLE LAKE     SUNNY     32  24  70 SE7       30.21F WCI  26
$$
MNZ037-044-045-052-053-032100-
   East Central Minnesota

CITY           SKY/WX    TMP DP  RH WIND       PRES   REMARKS
PRINCETON      CLOUDY    30  21  69 SE3       30.21F
MORA           CLOUDY    32  21  64 SE3       30.22F
CAMBRIDGE      CLOUDY    34  21  60 SE5       30.20F WCI  30
RUSH CITY      CLOUDY    32  21  64 SE5       30.23S WCI  27
MOOSE LAKE     CLOUDY    32  21  64 S5        30.19F WCI  27
HINCKLEY       CLOUDY    32  23  69 CALM      30.22F
CLOQUET        CLOUDY    28  19  69 CALM      30.20F
MCGREGOR       CLOUDY    30  21  69 SE8       30.19F WCI  23
$$
MNZ071>073-080-081-089-090-097-098-032100-
   Southwest Minnesota

CITY           SKY/WX    TMP DP  RH WIND       PRES   REMARKS
MONTEVIDEO     PTSUNNY   32  27  80 S12G17    30.16F WCI  23
GRANITE FALLS  CLOUDY    35  29  81 SE16      30.17F WCI  25
CANBY          MOSUNNY   37  32  81 SE9       30.12F
MARSHALL       MOSUNNY   36  30  79 S17       30.13F
REDWOOD FALLS  PTSUNNY   34  26  72 S17       30.18F WCI  23
OLIVIA         MOSUNNY   34  28  80 SE12      30.17F WCI  25
PIPESTONE      CLOUDY    36  30  80 S16       30.11S
WINDOM         CLOUDY    36  30  80 S10       30.16F
WORTHINGTON    CLOUDY    35  30  82 S18       30.15F WCI  24
JACKSON        CLOUDY    34  30  86 S13       30.18F WCI  25
TRACY          PTSUNNY   36  32  85 S13G20    30.14F
SLAYTON        CLOUDY    34  31  89 S14G20    30.14F WCI  24
$$
MNZ065>067-074>077-082>085-091>093-032100-
   South Central Minnesota

CITY           SKY/WX    TMP DP  RH WIND       PRES   REMARKS
MANKATO        CLOUDY    33  25  72 S10       30.23S WCI  25
NEW ULM        CLOUDY    34  25  69 S12       30.21F WCI  25
ST JAMES       CLOUDY    34  28  80 SE12      30.22F WCI  25
FAIRMONT       MOSUNNY   35  28  75 S10       30.21F WCI  27
GLENCOE        CLOUDY    33  27  78 SE6       30.21S WCI  27
FARIBAULT      SUNNY     34  23  64 SE7       30.24R WCI  28
OWATONNA       MOSUNNY   30  23  74 SW7       30.24R WCI  23
WASECA         CLOUDY    32  27  80 S8        30.24S WCI  25
ALBERT LEA     CLOUDY    36  27  69 S7        30.24S
$$
MNZ078>079-086>088-094>096-032100-
   Southeast Minnesota

CITY           SKY/WX    TMP DP  RH WIND       PRES   REMARKS
ROCHESTER      CLOUDY    30  23  75 S9        30.25S WCI  22
RED WING       CLOUDY    32  19  59 CALM      30.25F
STANTON        MOSUNNY   33  22  64 S5        30.23S WCI  29
DODGE CENTER   SUNNY     30  23  74 SE6       30.24S WCI  24
WINONA         CLOUDY    34  25  69 S5        30.29S WCI  30
AUSTIN         CLOUDY    32  23  69 S5        30.25R WCI  27
PRESTON        CLOUDY    30  21  68 CALM      30.25F
$$
ABBREVIATIONS USED IN REMARKS
   TC - TEMPERATURES IN CELSIUS
  WCI - WIND CHILL INDEX
   HX - HEAT INDEX
  VSB - VISIBILITY
$$




USA.gov is the U.S. government's official web portal to all federal, state and local government web resources and services.